Flag for Israel Weather past 2 weeks in Jerusalem, Israel

Now
86 °F

Partly sunny.


Feels Like: 91 °F
Forecast: 66 / 84 °F
Wind: 12 mph from West

Location: Ben Gurion International Airport

Current Time: Jul 22, 2014 at 12:54:08 PM

Latest Report: Jul 22, 2014 at 12:20 PM


Visibility: N/A

Pressure: 29.77 "Hg

Humidity: 59%

Dew point: 70 °F

Location of JerusalemLocation

Historic Weather in Jerusalem — Graph

°F

Jerusalem temperature yesterday

Maximum temperature yesterday: 88 °F (at 1:20 PM)
Minimum temperature yesterday: 75 °F (at 3:20 AM)
Average temperature yesterday: 81 °F

Past Weeks' High & Low Weather Summary

 TemperatureHumidityPressure
High95 °F (Jul 12, 3:20 PM)83% (Jul 8, 2:50 AM)29.89 "Hg (Jul 8, 2:50 AM)
Low72 °F (Jul 10, 5:20 AM)34% (Jul 12, 3:20 PM)29.74 "Hg (Jul 8, 3:50 PM)
Average81 °F65%29.80 "Hg
* Reported Jul 7 11:20 AM — Jul 22 11:20 AM, Jerusalem, Weather by CustomWeather, © 2014

Note: Actual official high and low records may vary slightly from our data, if they occured in-between our weather recording intervals... More about our weather records

Advertising

Jerusalem weather history for previous 24 hours

 ConditionsComfort  
Time TempWeatherWind HumidityBarometerVisibility
11:20 AM
Jul 22
88 °FPartly sunny.6 mph55%29.77 "HgN/A
10:50 AM86 °FPartly sunny.6 mph55%29.80 "HgN/A
10:20 AM84 °FPartly sunny.6 mph58%29.80 "HgN/A
9:50 AM84 °FPartly sunny.7 mph58%29.80 "HgN/A
9:20 AM82 °FPartly sunny.6 mph66%29.80 "HgN/A
8:50 AM82 °FPartly sunny.7 mph66%29.80 "HgN/A
8:20 AM81 °FPassing clouds.6 mph66%29.80 "HgN/A
7:50 AM79 °FPassing clouds.7 mph70%29.77 "HgN/A
7:20 AM77 °FPassing clouds.7 mph74%29.77 "HgN/A
6:50 AM75 °FPassing clouds.6 mph74%29.77 "HgN/A
6:20 AM73 °FPassing clouds.6 mph83%29.77 "Hg6 mi
5:50 AM73 °FPassing clouds.3 mph78%29.77 "Hg6 mi
5:20 AM75 °FPassing clouds.6 mph78%29.77 "HgN/A
4:50 AM73 °FPassing clouds.3 mph83%29.77 "HgN/A
4:20 AM75 °FPassing clouds.3 mph78%29.74 "HgN/A
3:50 AM75 °FPassing clouds.2 mph74%29.74 "HgN/A
3:20 AM75 °FPassing clouds.6 mph78%29.77 "HgN/A
2:50 AM75 °FPassing clouds.6 mph78%29.77 "HgN/A
2:20 AM75 °FPassing clouds.5 mph78%29.77 "HgN/A
1:50 AM75 °FPassing clouds.6 mph78%29.77 "HgN/A
1:20 AM77 °FPassing clouds.2 mph74%29.77 "HgN/A
12:20 AM77 °FClear.2 mph79%29.77 "Hg10 mi
11:50 PM
Jul 21
77 °FClear.3 mph79%29.77 "Hg10 mi
11:20 PM77 °FClear.5 mph79%29.77 "Hg10 mi
10:50 PM79 °FPassing clouds.2 mph74%29.77 "HgN/A
10:20 PM79 °FPassing clouds.2 mph74%29.77 "HgN/A
9:50 PM79 °FPassing clouds.3 mph74%29.77 "HgN/A
9:20 PM79 °FPassing clouds.3 mph74%29.77 "HgN/A
8:50 PM79 °FPassing clouds.5 mph74%29.77 "HgN/A
8:20 PM81 °FPassing clouds.5 mph70%29.77 "HgN/A
7:50 PM81 °FPassing clouds.7 mph70%29.77 "HgN/A
7:20 PM82 °FScattered clouds.8 mph66%29.77 "HgN/A
6:50 PM82 °FScattered clouds.9 mph66%29.77 "HgN/A
6:20 PM84 °FScattered clouds.12 mph58%29.77 "HgN/A
5:50 PM84 °FScattered clouds.12 mph62%29.77 "HgN/A
5:20 PM86 °FScattered clouds.12 mph59%29.77 "HgN/A
4:50 PM86 °FScattered clouds.14 mph59%29.77 "HgN/A
4:20 PM86 °FScattered clouds.13 mph59%29.77 "HgN/A
3:50 PM86 °FScattered clouds.13 mph55%29.77 "HgN/A
3:20 PM86 °FScattered clouds.14 mph55%29.77 "HgN/A
2:50 PM86 °FScattered clouds.14 mph59%29.77 "HgN/A
2:20 PM86 °FScattered clouds.15 mph55%29.77 "HgN/A
1:50 PM86 °FScattered clouds.13 mph59%29.77 "HgN/A
1:20 PM88 °FScattered clouds.14 mph52%29.77 "HgN/A
12:50 PM86 °FScattered clouds.14 mph55%29.77 "HgN/A
12:20 PM86 °FScattered clouds.12 mph55%29.77 "HgN/A
Weather by CustomWeather, © 2014

See weather overviewHow to use our weather pages